FW2541 Weather Reports


time (UTC)temp
C
wind
direction
speed
KPH
gust
KPH
rain 1hr
cm
rain 24hr
cm
rain mn
cm
humidity
%
barometer
mb
20260505023016 14 0 8.0 24.1 0.00 0.00 0.00 40 1011.5
20260505020016 15 0 9.7 20.9 0.00 0.00 0.00 38 1011.3
20260505013016 15 0 9.7 30.6 0.00 0.00 0.00 35 1011.2
20260505010016 16 0 9.7 25.7 0.00 0.00 0.00 33 1010.8
20260505003015 17 0 11.3 24.1 0.00 0.00 0.00 31 1010.1
20260505000015 17 0 14.5 33.8 0.00 0.00 0.00 30 1009.1
20260504233015 18 0 14.5 33.8 0.00 0.00 0.00 28 1008.6
20260504230015 20 0 14.5 40.2 0.00 0.00 0.00 26 1008.1
20260504223015 20 0 16.1 37.0 0.00 0.00 0.00 23 1007.6
20260504220015 22 0 11.3 32.2 0.00 0.00 0.00 18 1007.6
20260504213015 22 0 12.9 33.8 0.00 0.00 0.00 15 1007.5
20260504210015 23 0 11.3 33.8 0.00 0.00 0.00 15 1007.5
20260504203015 22 0 12.9 33.8 0.00 0.00 0.00 14 1007.6
20260504200015 22 0 12.9 35.4 0.00 0.00 0.00 13 1007.7
20260504193015 22 0 14.5 33.8 0.00 0.00 0.00 13 1007.7
20260504190015 22 0 12.9 33.8 0.00 0.00 0.00 11 1007.8
20260504183017 22 0 14.5 43.5 0.00 0.00 0.00 13 1008.2
20260504180017 21 0 14.5 40.2 0.00 0.00 0.00 14 1008.4
20260504173017 21 0 14.5 37.0 0.00 0.00 0.00 15 1008.5
20260504050016 3 0.0 1.6 0.00 0.00 0.00 48 1011.3
20260504043016 3 0.0 1.6 0.00 0.00 0.00 47 1011.2
20260504040016 4 0.0 3.2 0.00 0.00 0.00 47 1010.9
20260504033016 5 0 1.6 6.4 0.00 0.00 0.00 45 1010.8
20260504030036 5 0 1.6 8.0 0.00 0.00 0.00 44 1010.8